Weather History for Crestview, FL

Change the Weather History Date:

Sunday, October 14, 2012

  Actual Average Record
Temperature  
Mean Temperature 73 °F -  
Max Temperature 87 °F 78 °F 87 °F (2012)
Min Temperature 62 °F 50 °F 37 °F (2000)
Cooling Degree Days 8    
Growing Degree Days 23 (Base 50)    
Moisture  
Dew Point 64 °F    
Average Humidity 79    
Maximum Humidity 96    
Minimum Humidity 49    
Precipitation  
Precipitation 0.00 in - - ()
Sea Level Pressure  
Sea Level Pressure 30.12 in    
Wind  
Wind Speed 2 mph (SE)    
Max Wind Speed 7 mph    
Max Gust Speed -    
Visibility 8 miles    
Events      
Averages and records for this station are not official NWS values.
T = Trace of Precipitation, MM = Missing Value Source: NWS Daily Summary

Daily Weather History Graph

Daily Weather History Graph

Search for Another Location

Airport:

Trip Planner

Search our weather history database for the weather conditions in past years. The results will help you decide how hot, cold, wet, or windy it might be!

Date:

Astronomy

Oct. 14, 2012 Rise Set
Actual Time 6:48 AM CDT 6:15 PM CDT
Civil Twilight 6:23 AM CDT 6:39 PM CDT
Nautical Twilight 5:55 AM CDT 7:07 PM CDT
Astronomical Twilight 5:27 AM CDT 7:35 PM CDT
Moon 5:47 AM CDT (10/14) 5:35 PM CDT (10/14)
Length of Visible Light 12h 15m
Length of Day
11h 26m
Waning Crescent, 1% of the Moon is Illuminated
Oct 14
Waning Crescent
Oct 15
New
Oct 21
First Quarter
Oct 29
Full
Nov 6
Last Quarter

Hourly Weather History & Observations

Time (CDT) Temp. Heat Index Dew Point Humidity Pressure Visibility Wind Dir Wind Speed Gust Speed Precip Events Conditions
12:53 AM 64.0 °F - 62.1 °F 93% 30.17 in 3.0 mi Calm Calm - N/A   Clear
1:29 AM 62.6 °F - 60.8 °F 94% 30.16 in 1.5 mi Calm Calm - N/A   Clear
1:40 AM 64.4 °F - 60.8 °F 88% 30.17 in 3.0 mi Calm Calm - N/A   Clear
1:44 AM 62.6 °F - 60.8 °F 94% 30.17 in 1.5 mi Calm Calm - N/A   Clear
1:53 AM 62.1 °F - 61.0 °F 96% 30.16 in 1.0 mi Calm Calm - N/A   Clear
2:02 AM 62.6 °F - 60.8 °F 94% 30.16 in 6.0 mi Calm Calm - N/A   Clear
2:53 AM 64.0 °F - 61.0 °F 90% 30.14 in 9.0 mi ESE 3.5 mph - N/A   Clear
3:53 AM 66.0 °F - 63.0 °F 90% 30.14 in 10.0 mi ESE 4.6 mph - N/A   Clear
4:53 AM 66.0 °F - 63.0 °F 90% 30.13 in 10.0 mi East 4.6 mph - N/A   Clear
5:53 AM 64.9 °F - 63.0 °F 93% 30.13 in 8.0 mi East 3.5 mph - N/A   Clear
6:53 AM 64.9 °F - 63.0 °F 93% 30.13 in 5.0 mi Calm Calm - N/A   Clear
7:08 AM 64.4 °F - 62.6 °F 94% 30.14 in 5.0 mi Calm Calm - N/A   Scattered Clouds
7:19 AM 66.2 °F - 62.6 °F 88% 30.15 in 5.0 mi Calm Calm - N/A   Mostly Cloudy
7:53 AM 68.0 °F - 64.9 °F 90% 30.14 in 7.0 mi ESE 5.8 mph - N/A   Overcast
8:29 AM 69.8 °F - 64.4 °F 83% 30.15 in 10.0 mi ESE 6.9 mph - N/A   Scattered Clouds
8:53 AM 73.0 °F - 66.0 °F 79% 30.16 in 10.0 mi ESE 6.9 mph - N/A   Clear
9:53 AM 78.1 °F - 66.9 °F 68% 30.17 in 10.0 mi Variable 4.6 mph - N/A   Clear
10:53 AM 81.0 °F 83.3 °F 66.9 °F 62% 30.18 in 10.0 mi Calm Calm - N/A   Scattered Clouds
11:04 AM 80.6 °F 82.7 °F 66.2 °F 61% 30.19 in 10.0 mi SW 5.8 mph - N/A   Mostly Cloudy
11:27 AM 80.6 °F 82.7 °F 66.2 °F 61% 30.18 in 10.0 mi Calm Calm - N/A   Scattered Clouds
11:53 AM 81.0 °F 83.0 °F 66.0 °F 60% 30.17 in 10.0 mi WSW 5.8 mph - N/A   Partly Cloudy
12:53 PM 82.9 °F 85.0 °F 66.0 °F 56% 30.14 in 10.0 mi SW 4.6 mph - N/A   Scattered Clouds
1:53 PM 84.0 °F 85.8 °F 64.9 °F 53% 30.10 in 10.0 mi SE 3.5 mph - N/A   Partly Cloudy
2:53 PM 84.9 °F 86.6 °F 64.9 °F 51% 30.07 in 10.0 mi Calm Calm - N/A   Clear
3:53 PM 84.0 °F 84.9 °F 63.0 °F 49% 30.06 in 10.0 mi Calm Calm - N/A   Clear
4:53 PM 84.0 °F 86.3 °F 66.0 °F 55% 30.04 in 10.0 mi Variable 3.5 mph - N/A   Clear
5:53 PM 79.0 °F - 68.0 °F 69% 30.03 in 10.0 mi South 6.9 mph - N/A   Partly Cloudy
6:53 PM 75.9 °F - 68.0 °F 76% 30.03 in 10.0 mi South 5.8 mph - N/A   Clear
7:53 PM 73.0 °F - 68.0 °F 84% 30.03 in 10.0 mi Calm Calm - N/A   Clear
8:53 PM 69.1 °F - 66.0 °F 90% 30.05 in 9.0 mi Calm Calm - N/A   Clear
9:53 PM 66.9 °F - 64.9 °F 93% 30.04 in 6.0 mi Calm Calm - N/A   Clear
10:53 PM 66.0 °F - 64.0 °F 93% 30.04 in 6.0 mi Calm Calm - N/A   Clear
11:53 PM 64.9 °F - 63.0 °F 93% 30.02 in 5.0 mi Calm Calm - N/A   Clear